Zurück zum Katalog

VIASAT 2

AktivKommunikationGEO
NORAD 42740·PAYLOAD·🇺🇸 United States

Gestartet Jun 1, 2017 von Guiana Space Centre

Loading…

TLE

AktuellSource: Space-Track

Epoche: Sep 14, 2026, 13:28 UTC

1 42740U 17029A   26257.56132095 -.00000273  00000-0  00000-0 0  9992
2 42740   0.0200 241.2930 0000903 263.0784 341.3043  1.00272162 34099

Verfolge VIASAT 2 in Echtzeit mit AllMySat

Download on the App Store